User: anonymous   Login
Location: Newark
(55.2831°N, 38.7366°E)
Time: 11:36:43
(UTC+00:00)
Language:

TIGRISAT - Orbit

View from above orbital plane
View from above orbital plane
View from above satellite
View from above satellite

Ground track
Ground track

The orbit data is extracted from the following two-line orbital elements,

1 40043U 14033AK  19263.15098051  .00000068  00000-0  17429-4 0  9993
2 40043  97.7439 126.9433 0060499 153.9002 206.5279 14.74291160282376
Epoch (UTC): 20 September 2019 03:37:24
Eccentricity: 0.0060499
inclination: 97.7439°
perigee height: 605 km
apogee height: 690 km
right ascension of ascending node: 126.9433°
argument of perigee: 153.9002°
revolutions per day: 14.74291160
mean anomaly at epoch: 206.5279°
orbit number at epoch: 28237

The dashed part of the orbit path shows where the satellite is in the earth's shadow,  

DLR